OBJECT D, 64531

Orbit data source: Space-Track

You're viewing an Uncataloged Satellite

Recently launched and/or uncataloged satellites may have evolving metadata. Metadata may include but not limited to: Owner, Maufacturer, Bus, Motor, and Mission.

OBJECT D, 64531 is a New Zealander satellite in SSO that was launched on Mon, 23 Jun 2025 UTC via an FALCON 9 launch vehicle from the Air Force Western Test Range (AFWTR). Unknown objects in Earth's orbit typically refer to objects detected orbiting the Earth but have not yet been identified or cataloged. These objects could be anything from previously untracked satellites, spent rocket stages, debris from satellite collisions, or even natural meteoroids temporarily captured by Earth's gravity.

Loading next visibility...
Identifier
64531, 2025-135D
Orbit
SSO
Country
Flag of NZNZ
Related business
None
Manufacturer
Unknown
Mission
Operational Commercial Imaging
Bus & Motor
Unknown
Mass
Unknown
Launch date (UTC)
2025-06-23 (10 months ago)
Launch vehicle
FALCON 9
Launch site
Air Force Western Test Range (AFWTR)
Object type
Unknown
Shape & HBR
Box, 0.1 m
Radar Cross Section
0.015 m², Medium (>0.1 m² and < 1m²)

Expand to show TLE details & history
Last TLE update: 7 hours ago

TLE from 7 hours ago
0 OBJECT D
1 64531U 25135D   26120.12062323  .00012315  00000-0  49313-3 0  9990
2 64531  97.4661 236.3794 0003765 352.2617   7.8562 15.25191522 47591
Epoch: 2026-04-30T02:53Z
TLE epoch observation values (Epoch: 2026-04-30T02:53:41.847Z)
Latitude
-0°
Longitude
-25.11675°
Altitude
490.744 km
Speed
7.621 km/s
True Right ascension
15h 45m 31s
True Declination
0° 00' 00"
Sunlit
Object was in full shadow at epoch
Visualization orbit readout
Latitude
Unknown
Longitude
Unknown
Altitude
Unknown
Speed
Unknown
Apparent Right ascension
Unknown
Apparent Declination
Unknown
Sunlit
N/A
Visualization observer readout
Local Sidereal Time
17:29:11
Azimuth
Unknown
Elevation
Unknown
Doppler factor
Unknown
Orbital elements
Apogee altitude
489.757 km
Perigee altitude
484.587 km
Semi-major axis
6,865.309 km
Eccentricity
0.00038
Inclination
97.4661°
RAAN
236.3794°
Arg. of periapsis
352.2617°
True anomaly
7.8621°
Mean anomaly
7.8562°
Eccentric anomaly
7.85915°
Mean motion
3.81551 °/min
Orbital period
94.35 mins
BSTAR
0.00049313
Loading maneuver chart data...
Computing Atmospheric mass density...
Loading historical data...
Loading historical data...
Loading historical data...
Loading historical data...
Loading historical data...
Loading historical data...
Loading historical data...

Documentation

Showing up to 5 results
|